This is the latest recevied weather packets stored in our database for station/object PA1CD-13. If no packets are shown the sender has not sent any weather packets the latest 10 day(s).
| Time | Temp. | Humidity | Pressure | Rain* | Wind** | Luminosity | Snow |
|---|---|---|---|---|---|---|---|
| 1778327585 | 16.11° C | 60% | 1017.9 hPa | 0 mm | - | 304 W/m² | - |
| 1778327466 | 16.11° C | 60% | 1017.9 hPa | 0 mm | - | 283 W/m² | - |
| 1778327345 | 16.11° C | 60% | 1018 hPa | 0 mm | - | 283 W/m² | - |
| 1778327226 | 16.11° C | 60% | 1018 hPa | 0 mm | - | 290 W/m² | - |
| 1778327107 | 16.11° C | 60% | 1018 hPa | 0 mm | - | 290 W/m² | - |
| 1778326987 | 16.11° C | 60% | 1018 hPa | 0 mm | - | 294 W/m² | - |
| 1778326866 | 16.11° C | 60% | 1018 hPa | 0 mm | - | 285 W/m² | - |
| 1778326746 | 16.11° C | 60% | 1018 hPa | 0 mm | - | 285 W/m² | - |
| 1778326625 | 16.11° C | 60% | 1018 hPa | 0 mm | - | 287 W/m² | - |
| 1778326506 | 16.11° C | 60% | 1018 hPa | 0 mm | - | 297 W/m² | - |
| 1778326386 | 16.11° C | 59% | 1018.1 hPa | 0 mm | - | 301 W/m² | - |
| 1778326265 | 16.11° C | 59% | 1018.1 hPa | 0 mm | - | 301 W/m² | - |
| 1778326145 | 16.11° C | 59% | 1018.1 hPa | 0 mm | - | 297 W/m² | - |
| 1778326025 | 16.11° C | 60% | 1018.1 hPa | 0 mm | - | 297 W/m² | - |
| 1778325906 | 16.11° C | 60% | 1018.1 hPa | 0 mm | - | 308 W/m² | - |
| 1778325786 | 16.11° C | 60% | 1018.1 hPa | 0 mm | - | 318 W/m² | - |
| 1778325665 | 16.11° C | 60% | 1018.2 hPa | 0 mm | - | 322 W/m² | - |
| 1778325546 | 16.11° C | 60% | 1018.3 hPa | 0 mm | - | 329 W/m² | - |
| 1778325425 | 16.11° C | 60% | 1018.2 hPa | 0 mm | - | 336 W/m² | - |
| 1778325306 | 16.11° C | 61% | 1018.3 hPa | 0 mm | - | 320 W/m² | - |
| 1778325185 | 16.11° C | 61% | 1018.3 hPa | 0 mm | - | 304 W/m² | - |
| 1778325065 | 15.56° C | 61% | 1018.3 hPa | 0 mm | - | 304 W/m² | - |
| 1778324945 | 15.56° C | 61% | 1018.3 hPa | 0 mm | - | 283 W/m² | - |
| 1778324825 | 15.56° C | 61% | 1018.5 hPa | 0 mm | - | 273 W/m² | - |
| 1778324698 | 15.56° C | 60% | 1018.3 hPa | 0 mm | - | 266 W/m² | - |
* Rain latest hour (hover to see other rain measurements)
** Current wind speed in m/s (hover to see current wind gust speed)